Wind_Speed
13 13 13 12 11 11 11 11 10 10 10 9 9 10 10 10 10 9 9 9 10 10 11 12 11 11 12 13 13 13 13 12 12 12 12 11 11 10 10 10 10 10 10
14 14 13 13 13 12 12 12 11 10 10 10 9 9 9 10 10 10 9 10 10 11 12 13 12 13 14 14 14 14 14 14 13 13 13 13 13 12 13 12 11 11 12
15 15 15 14 13 13 13 13 12 11 11 11 10 10 10 10 11 11 11 12 12 12 13 14 14 15 15 16 16 16 15 15 15 15 14 14 14 14 13 13 13 13 13
16 16 15 15 14 14 14 14 14 13 12 12 13 12 12 12 12 13 13 13 14 13 14 15 16 16 16 16 16 17 16 16 16 15 15 15 15 15 14 14 14 14 15
16 16 16 16 16 15 15 15 14 14 13 13 14 14 14 13 14 14 15 14 15 15 15 16 16 16 16 15 16 17 17 17 17 16 16 16 16 16 16 15 15 15 15
16 17 18 17 16 15 15 15 14 14 15 14 14 14 14 15 15 15 15 16 16 16 16 16 16 17 16 16 16 16 17 17 18 17 17 17 18 18 17 17 17 17 17
17 17 18 17 16 15 15 15 14 14 15 14 13 14 15 15 16 16 16 17 17 16 16 16 16 16 17 16 16 16 16 16 18 19 19 19 19 20 19 19 18 18 18
17 17 18 17 17 16 16 15 14 14 15 14 15 15 15 16 16 17 17 17 18 18 17 17 17 17 17 17 17 17 17 17 18 19 20 20 20 20 20 20 20 20 19
17 18 18 18 17 17 17 15 14 14 15 15 15 16 16 16 17 17 17 18 18 18 18 18 17 18 18 17 17 18 18 19 19 19 20 20 20 20 20 20 21 21 21
18 18 17 17 17 18 18 17 16 15 16 16 17 17 17 17 17 17 17 17 18 18 18 18 18 19 19 19 18 19 20 20 21 21 21 21 21 21 21 22 23 23 23
18 18 18 18 18 18 18 17 17 16 17 17 17 17 18 18 18 18 17 17 18 18 18 19 20 20 20 20 20 20 20 21 21 21 21 21 21 22 22 23 23 23 23
19 19 17 17 18 17 17 17 17 17 18 18 18 17 18 17 17 18 18 18 18 18 19 19 20 21 21 21 21 20 21 20 20 21 22 22 22 22 23 23 24 24 24
19 18 18 18 18 18 17 17 18 18 18 18 18 18 17 17 18 18 18 18 18 19 19 20 20 21 21 21 21 20 20 20 21 21 23 23 23 23 24 24 24 24 25
19 19 18 18 19 18 18 18 18 18 18 18 18 18 18 18 18 19 18 18 18 19 19 20 19 19 19 20 20 20 19 20 21 22 23 24 23 24 24 24 24 24 25
19 19 19 18 19 18 18 17 18 19 19 19 19 18 19 19 19 20 20 19 19 19 19 19 18 18 19 20 20 20 20 20 21 21 22 23 24 24 25 24 24 24 25
20 19 19 18 18 18 18 18 18 19 19 19 19 19 19 19 19 20 20 20 19 20 19 18 18 18 19 19 19 20 21 21 21 21 22 23 25 24 24 24 24 25 25
21 20 19 18 18 18 19 19 19 19 19 19 19 19 19 19 19 19 20 20 20 20 20 19 18 19 20 20 20 20 21 21 21 22 22 23 23 23 23 24 24 25 25
22 21 20 19 20 20 20 20 21 20 20 19 19 19 19 20 20 20 20 20 20 20 20 19 20 20 20 20 21 21 21 22 22 22 23 23 24 25 24 24 25 25 25
21 21 21 20 20 20 20 20 20 19 18 18 18 19 19 20 21 21 20 20 19 20 20 20 20 21 21 21 22 22 23 23 23 22 23 23 24 24 25 26 25 26 25
21 20 20 20 20 20 20 19 19 19 18 18 18 19 19 20 20 21 20 20 19 19 20 20 20 20 21 21 21 22 23 22 22 23 23 24 25 24 25 26 25 25 25
20 21 21 20 20 20 20 20 19 19 19 18 18 19 19 19 19 20 20 20 20 20 21 21 21 21 21 21 22 22 22 22 23 23 24 25 24 24 25 25 26 26 26
20 20 20 20 20 20 20 20 20 20 20 20 20 20 20 20 20 20 21 21 21 21 21 21 22 22 22 23 23 23 23 23 23 24 25 25 25 24 24 25 26 27 27
20 20 20 21 21 21 21 21 20 20 21 21 21 21 20 21 21 21 21 21 22 22 22 23 23 23 23 24 24 24 24 25 24 24 25 25 25 25 26 26 26 27 28
20 20 20 21 21 21 21 22 21 22 22 21 22 22 22 22 22 22 21 22 22 22 23 23 23 24 25 25 25 25 26 26 25 25 25 25 25 25 25 26 26 27 27
20 20 20 20 20 21 21 22 22 23 22 22 22 23 23 23 22 22 22 22 23 23 24 25 25 25 25 26 26 27 27 27 26 26 25 26 26 27 27 27 27 27 28
21 20 20 20 21 21 22 22 22 22 23 23 23 23 23 23 22 22 23 24 24 24 25 25 25 26 27 27 27 27 27 27 26 25 26 27 26 26 27 27 27 28 29
Wind_Direction
278 277 280 285 287 290 287 284 288 283 275 272 269 269 271 269 267 264 262 260 259 261 261 258 261 263 262 258 260 260 259 259 259 261 259 255 253 256 256 254 250 251 253
277 277 278 282 284 287 290 286 285 283 273 271 269 268 268 268 267 266 267 269 268 266 265 262 260 264 264 259 257 258 260 261 264 263 260 259 256 256 261 259 256 257 255
282 279 278 281 284 287 285 284 280 281 270 270 267 268 268 269 267 268 271 271 271 270 267 266 265 264 265 263 260 259 262 261 262 264 261 261 262 261 262 263 263 262 260
280 276 279 281 283 285 284 284 279 278 270 269 268 269 269 269 268 271 272 271 269 268 268 267 266 265 265 262 260 259 262 263 264 262 261 261 262 264 264 265 269 265 262
278 276 278 278 281 282 284 285 280 272 271 273 270 269 272 271 270 271 271 271 271 270 269 270 267 266 263 263 262 260 260 263 263 263 261 261 261 263 264 265 267 268 265
280 281 277 276 279 279 283 284 277 271 271 273 271 269 271 272 270 271 271 271 272 270 269 269 267 266 262 263 265 264 263 264 263 262 261 262 263 262 262 262 264 266 267
282 281 279 275 275 278 281 282 277 271 272 271 274 273 272 272 272 272 272 273 271 270 269 268 267 265 261 262 264 265 266 266 263 260 261 262 262 261 262 263 263 265 266
283 281 281 279 274 275 280 280 278 273 272 271 272 273 274 273 273 272 273 272 270 270 270 269 270 268 268 265 264 266 267 266 267 265 264 264 265 263 263 264 265 266 264
285 283 280 278 276 273 274 273 277 275 272 274 276 276 277 276 274 274 273 271 270 270 269 270 270 269 269 270 268 266 266 267 267 267 267 267 267 268 266 265 265 267 264
287 283 280 278 276 272 271 272 275 275 274 277 278 278 280 277 274 274 274 273 270 270 270 271 271 271 271 270 271 271 269 268 268 267 267 268 268 270 269 267 265 265 264
285 283 280 278 277 275 271 272 272 272 275 278 279 280 281 277 274 274 274 274 273 273 273 274 273 273 272 271 272 273 273 269 267 268 268 269 270 269 269 268 267 265 265
284 282 281 281 279 279 277 275 276 275 275 276 278 280 281 278 276 274 274 275 275 276 276 276 275 274 274 274 273 274 274 272 269 269 269 269 269 268 267 268 267 266 265
284 282 281 281 281 279 275 275 275 276 276 278 281 282 281 279 277 276 276 276 277 277 277 277 277 276 275 274 274 274 274 272 270 268 268 269 269 268 267 267 267 267 266
284 282 280 280 281 279 277 275 271 272 274 276 280 283 282 280 278 276 276 276 277 278 278 278 279 277 275 275 275 274 275 273 271 269 268 268 269 268 268 269 270 269 268
281 279 279 280 280 278 277 275 273 273 273 274 277 279 281 282 281 278 277 278 278 277 278 278 277 277 277 276 277 276 275 275 272 271 268 267 268 267 267 268 269 271 270
280 279 280 281 282 280 279 277 276 277 275 276 276 277 279 281 283 280 277 277 279 276 276 277 278 279 278 275 275 276 275 274 271 270 269 268 269 268 268 266 268 270 269
276 277 279 280 282 282 281 280 280 277 277 276 275 275 277 278 279 279 278 277 278 277 275 278 278 278 278 277 278 276 273 273 273 272 272 272 271 270 270 271 271 270 269
275 276 276 277 281 281 280 281 280 278 278 277 273 272 275 277 278 279 279 279 279 278 276 275 277 277 276 277 278 277 277 277 276 274 274 273 272 273 273 274 274 272 271
274 275 275 276 279 280 280 281 280 281 279 278 274 273 276 277 278 279 280 281 280 277 276 276 277 278 279 279 278 278 278 279 278 276 275 274 273 273 274 274 274 271 270
273 272 272 274 276 277 279 280 278 277 278 276 276 277 278 279 279 279 278 279 280 279 279 280 280 280 281 281 282 282 282 282 281 279 278 275 274 273 274 274 273 272 270
274 272 272 273 274 274 275 276 277 276 276 276 277 279 280 281 280 278 277 277 278 279 279 281 283 284 284 284 284 286 286 284 283 281 280 278 276 275 274 273 273 273 273
273 273 274 273 273 273 274 276 276 275 275 276 278 281 282 282 281 278 276 278 280 280 279 279 280 283 283 284 285 286 287 286 286 283 283 282 278 277 276 275 273 273 273
272 273 274 273 272 273 274 275 275 276 276 275 277 279 281 283 283 281 278 278 279 280 279 279 279 282 283 285 286 287 289 290 289 287 285 284 280 279 278 277 275 274 274
271 273 275 274 272 273 274 275 275 276 276 275 277 279 280 283 283 281 278 278 279 279 280 280 280 281 282 284 286 287 288 289 288 287 285 285 283 281 278 278 277 275 275
276 275 276 276 275 276 275 275 276 275 275 276 279 280 281 282 281 280 279 280 279 280 281 281 281 281 283 284 286 287 288 288 287 287 286 285 283 281 280 279 278 276 275
275 275 275 276 277 277 275 274 274 275 275 276 278 280 281 280 280 281 280 279 279 280 280 280 280 282 283 285 287 287 286 287 287 287 286 285 283 282 282 282 280 278 278
Height
5860 5860 5860 5860 5860 5859 5859 5859 5859 5859 5859 5859 5859 5860 5861 5862 5862 5862 5863 5864 5865 5866 5866 5867 5868 5869 5869 5870 5871 5872 5873 5873 5874 5875 5876 5877 5877 5878 5879 5879 5880 5881 5882
5858 5858 5858 5857 5857 5857 5857 5857 5856 5856 5857 5857 5857 5858 5858 5859 5859 5860 5860 5861 5862 5863 5864 5865 5866 5866 5867 5867 5868 5869 5870 5871 5871 5872 5873 5874 5875 5876 5876 5877 5878 5879 5879
5855 5855 5855 5855 5855 5855 5854 5854 5854 5854 5854 5855 5855 5856 5856 5857 5857 5857 5858 5859 5860 5861 5861 5862 5863 5864 5864 5864 5865 5866 5867 5868 5868 5869 5870 5871 5872 5873 5873 5874 5875 5876 5876
5852 5852 5853 5852 5852 5852 5852 5852 5851 5852 5852 5852 5853 5853 5854 5854 5855 5855 5855 5856 5857 5858 5859 5859 5860 5860 5861 5861 5862 5863 5864 5864 5865 5865 5866 5867 5868 5869 5870 5871 5872 5873 5873
5849 5849 5850 5850 5849 5849 5849 5849 5849 5849 5849 5849 5849 5850 5851 5851 5851 5852 5852 5853 5854 5854 5855 5856 5856 5856 5857 5857 5858 5859 5860 5861 5861 5862 5862 5863 5865 5866 5867 5868 5869 5869 5870
5846 5846 5846 5847 5846 5846 5846 5846 5845 5845 5845 5845 5845 5846 5847 5847 5847 5848 5848 5849 5850 5851 5851 5852 5852 5853 5853 5854 5854 5855 5856 5857 5857 5858 5859 5860 5861 5862 5863 5864 5865 5866 5866
5843 5843 5843 5843 5843 5843 5843 5843 5842 5842 5842 5842 5842 5842 5843 5843 5843 5844 5844 5845 5845 5846 5847 5847 5848 5849 5849 5850 5850 5851 5852 5853 5853 5854 5855 5855 5856 5857 5859 5859 5860 5861 5862
5840 5840 5839 5840 5839 5840 5840 5839 5839 5839 5839 5839 5839 5839 5839 5840 5840 5840 5840 5840 5841 5841 5842 5843 5844 5844 5845 5845 5846 5847 5848 5848 5849 5849 5850 5851 5852 5853 5854 5854 5855 5856 5857
5836 5836 5836 5836 5836 5836 5836 5836 5836 5836 5836 5836 5836 5836 5836 5836 5836 5836 5836 5836 5836 5836 5837 5838 5839 5840 5840 5841 5842 5842 5843 5844 5844 5845 5846 5846 5847 5847 5848 5849 5850 5851 5852
5833 5833 5833 5832 5833 5832 5833 5832 5832 5832 5832 5832 5832 5831 5831 5831 5831 5832 5832 5832 5832 5832 5833 5833 5834 5835 5835 5836 5837 5837 5838 5838 5839 5840 5840 5841 5841 5842 5843 5843 5844 5845 5846
5829 5829 5828 5828 5829 5828 5828 5828 5828 5828 5828 5828 5828 5827 5827 5826 5826 5827 5827 5828 5827 5828 5828 5828 5829 5829 5830 5831 5831 5832 5832 5833 5833 5834 5834 5835 5836 5836 5837 5838 5839 5839 5840
5825 5825 5824 5824 5824 5824 5824 5824 5824 5824 5824 5824 5823 5823 5822 5822 5822 5822 5823 5823 5823 5823 5823 5824 5824 5824 5824 5825 5826 5826 5826 5827 5827 5827 5828 5829 5829 5830 5831 5832 5832 5833 5834
5821 5821 5820 5820 5820 5820 5820 5820 5820 5820 5820 5819 5819 5818 5818 5817 5818 5818 5818 5818 5818 5818 5819 5819 5818 5819 5819 5819 5820 5820 5820 5821 5821 5821 5822 5822 5823 5824 5824 5825 5826 5827 5827
5817 5817 5816 5816 5816 5816 5816 5816 5815 5815 5815 5815 5814 5814 5813 5813 5813 5813 5813 5813 5814 5814 5814 5813 5813 5813 5813 5813 5814 5814 5814 5814 5814 5815 5815 5816 5816 5817 5818 5819 5819 5820 5821
5812 5812 5812 5811 5812 5811 5811 5811 5811 5811 5810 5810 5810 5810 5809 5808 5808 5808 5808 5808 5809 5809 5809 5808 5808 5808 5808 5808 5808 5808 5808 5808 5808 5808 5808 5809 5809 5810 5811 5811 5812 5813 5813
5808 5807 5807 5807 5807 5807 5807 5806 5806 5805 5805 5805 5805 5805 5804 5804 5804 5803 5803 5803 5803 5803 5804 5804 5803 5803 5802 5803 5803 5802 5802 5802 5802 5802 5802 5802 5803 5803 5804 5804 5805 5805 5806
5802 5803 5803 5803 5802 5802 5802 5801 5801 5800 5800 5800 5799 5799 5799 5799 5799 5798 5798 5798 5798 5798 5798 5798 5798 5798 5797 5797 5797 5797 5797 5796 5796 5796 5796 5796 5796 5796 5797 5797 5798 5798 5799
5797 5797 5798 5798 5798 5797 5796 5796 5795 5794 5794 5793 5793 5794 5794 5794 5794 5793 5793 5793 5792 5792 5792 5793 5793 5792 5792 5791 5791 5791 5791 5790 5790 5790 5790 5790 5790 5790 5790 5790 5790 5791 5791
5791 5791 5792 5792 5792 5791 5791 5791 5790 5789 5788 5788 5788 5788 5788 5788 5788 5788 5788 5787 5787 5787 5787 5787 5787 5787 5786 5786 5785 5785 5785 5784 5784 5783 5783 5783 5783 5783 5783 5783 5783 5783 5784
5786 5786 5786 5786 5786 5786 5786 5786 5785 5784 5784 5783 5783 5783 5783 5782 5782 5782 5782 5782 5782 5782 5781 5781 5781 5781 5781 5780 5779 5779 5778 5777 5777 5776 5776 5775 5775 5775 5775 5775 5775 5775 5776
5780 5780 5780 5780 5780 5780 5780 5780 5780 5779 5779 5779 5778 5778 5777 5777 5776 5776 5776 5776 5776 5776 5776 5776 5776 5776 5775 5774 5774 5773 5772 5771 5770 5769 5768 5768 5767 5767 5767 5767 5767 5767 5767
5774 5774 5775 5775 5774 5774 5774 5774 5774 5774 5774 5773 5773 5773 5772 5771 5771 5770 5771 5771 5771 5770 5770 5770 5770 5770 5769 5768 5767 5766 5765 5764 5763 5763 5761 5760 5759 5759 5759 5759 5759 5759 5759
5769 5769 5769 5769 5769 5768 5768 5768 5768 5768 5768 5768 5768 5767 5766 5766 5765 5764 5764 5764 5765 5764 5764 5764 5764 5764 5763 5762 5761 5760 5758 5757 5756 5755 5753 5753 5752 5751 5751 5751 5751 5751 5750
5764 5764 5763 5763 5763 5763 5762 5762 5762 5762 5762 5762 5761 5761 5760 5760 5759 5758 5758 5758 5758 5758 5758 5758 5758 5757 5756 5755 5754 5753 5751 5750 5749 5747 5746 5745 5744 5743 5743 5742 5742 5742 5742
5758 5758 5757 5757 5757 5757 5757 5756 5756 5756 5756 5756 5755 5755 5754 5754 5753 5752 5752 5752 5752 5752 5751 5751 5751 5750 5749 5748 5747 5745 5744 5743 5741 5740 5739 5737 5737 5736 5735 5734 5734 5733 5733
5752 5752 5752 5752 5751 5751 5750 5750 5750 5750 5750 5750 5749 5748 5748 5747 5747 5746 5746 5746 5745 5745 5744 5744 5743 5743 5742 5741 5739 5738 5736 5735 5734 5733 5731 5730 5729 5727 5727 5726 5725 5725 5724